Regional Weather Roundup
Issued by NWS

Home | Current Version | Previous Version | Graphics & Text | Print | Product List | Glossary On
Versions: 1 2 3 4 5 6 7 8 9 10 11 12 13 14 15 16 17 18 19 20 21 22 23 24 25 26 27 28 29 30 31 32 33 34 35 36 37 38 39 40 41 42 43 44 45 46 47 48 49 50
000
ASUS43 KLOT 230308
RWRIL

ILLINOIS REGIONAL WEATHER ROUNDUP
NATIONAL WEATHER SERVICE CHICAGO/ROMEOVILLE IL
1000 PM CDT SAT APR 22 2017

NOTE: "FAIR" INDICATES FEW OR NO CLOUDS BELOW 12,000 FEET WITH NO
SIGNIFICANT WEATHER AND/OR OBSTRUCTIONS TO VISIBILITY.

* THESE STATIONS ARE NOT UNDER NWS QUALITY CONTROL. THEY ALSO MAY NOT
  REPORT WEATHER SUCH AS PRECIPITATION OR FOG.

ILZ001-002-007-009-015-016-024-230400-
NORTHWEST ILLINOIS

CITY           SKY/WX    TMP DP  RH WIND       PRES   REMARKS
MOLINE         CLEAR     48  38  68 CALM      30.15S
STERLING*      CLEAR     49  33  54 CALM      30.17R
SAVANNA*       CLEAR     49  38  65 CALM      30.17R
$$

ILZ003-004-008-010-011-017-018-230400-
NORTH CENTRAL ILLINOIS

CITY           SKY/WX    TMP DP  RH WIND       PRES   REMARKS
ROCKFORD       CLEAR     50  31  48 CALM      30.19R
FREEPORT*      CLEAR     46  31  57 CALM      30.19R
ROCHELLE*      CLEAR     47  28  47 CALM      30.17R
DE KALB*       CLEAR     49  25  39 CALM      30.17S
PERU*          CLEAR     49  26  40 E8        30.16R
$$

ILZ005-006-012>014-019>023-230400-
NORTHEAST ILLINOIS

CITY           SKY/WX    TMP DP  RH WIND       PRES   REMARKS
CHICAGO-OHARE  CLEAR     52  20  28 VRB3      30.16R
CHICAGO-MIDWAY CLEAR     51  22  31 CALM      30.16S
AURORA         CLEAR     46  28  49 NE3       30.16R
LANSING*       CLEAR     45  33  64 CALM      30.16S
JOLIET*        CLEAR     46  30  54 CALM      30.16S
WAUKEGAN       CLEAR     39  28  64 CALM      30.16R
DUPAGE AIRPORT CLEAR     43  31  62 CALM      30.15S
KANKAKEE*      CLEAR     44  28  54 CALM      30.16R
WHEELING       CLEAR     45  29  53 N3        30.17S
MORRIS*        CLEAR     47  28  48 CALM      30.15R
ROMEOVILLE*    CLEAR     45  30  56 NE3       30.16R
NORTHERLY ISL    N/A     48  25  40 MISG        N/A
$$

LMZ740>746-230400-
SOUTHERN LAKE MICHIGAN

STATION/POSITION SKY/WX   TEMP    WIND        PRES    VSBY  WAVE
                          AIR SEA DIR/SP/G                  HT/PER
                          (F)     (DEG/KT/KT) (MB)    (MI)  (FT/S)
HARRISON CRIB              49     340/  6/  6   N/A
BURNHAM HARBOR             48      20/  8/  9   N/A
CALUMET HARBOR             46     360/  3/  5 1020.8R
BURNS HARBOR               46      50/  8/  9 1021.7R
MICHIGAN CITY              46      30/  9/ 10   N/A
ST. JOSEPH                 48 47   60/ 10/ 12 1021.9          2/ 4
$$

ILZ025>027-034>036-040-047-049-050-058-095>099-230400-
WEST-CENTRAL ILLINOIS

CITY           SKY/WX    TMP DP  RH WIND       PRES   REMARKS
QUINCY         CLEAR     47  33  58 NE8       30.13R
GALESBURG*     CLEAR     44  32  62 NE7       30.14S
MACOMB*        CLOUDY    48  31  50 NE6       30.16R
JACKSONVILLE*  CLEAR     52  28  39 NE10      30.12R
PITTSFIELD*    CLEAR     53  31  43 N6        30.13R
$$

ILZ028>032-037-038-041>044-048-051>054-059>061-230400-
CENTRAL ILLINOIS

CITY           SKY/WX    TMP DP  RH WIND       PRES   REMARKS
PONTIAC        CLEAR     47  30  50 NE9       30.15S
BLOOMINGTON    CLEAR     43  30  60 NE9       30.14R
DECATUR        CLEAR     50  34  54 NE15      30.11R
PEORIA         CLEAR     50  27  40 NE6       30.14R
LACON*         CLEAR     47  28  47 NE6       30.14R
LINCOLN*       CLEAR     50  32  50 N7        30.13R
SPRINGFIELD    CLEAR     52  31  44 NE10      30.11R
TAYLORVILLE    CLEAR     51  32  48 NE8       30.10R
$$

ILZ033-039-045-046-055>057-062-063-230400-
EAST-CENTRAL ILLINOIS

CITY           SKY/WX    TMP DP  RH WIND       PRES   REMARKS
CHAMPAIGN      CLEAR     50  30  46 NE13      30.11R
RANTOUL*       CLEAR     50  32  50 NE13      30.12S
MATTOON        PTCLDY    48  34  58 NE5       30.09R
PARIS*         PTCLDY    49  34  55 NE6       30.10S
$$

ILZ079-100>102-230400-
SOUTHWEST ILLINOIS

CITY           SKY/WX    TMP DP  RH WIND       PRES   REMARKS
ALTON          CLEAR     50  34  53 MISG      30.09R
BELLEVILLE     CLEAR     50  37  61 NE5       30.07R
CAHOKIA*       CLEAR     50  36  58 NE5       30.08R
SPARTA*        CLOUDY    50  40  69 N7        30.07R
$$

ILZ064>066-069>071-074>076-080>082-084>086-088>090-092>094-230400-
SOUTH-CENTRAL ILLINOIS

CITY           SKY/WX    TMP DP  RH WIND       PRES   REMARKS
CARBONDALE     CLOUDY    51  45  79 N7        30.04R
CAIRO*         CLOUDY    52  46  79 N9        30.01R
EFFINGHAM*     PTCLDY    50  37  62 CALM      30.10R
MARION         CLOUDY    54  46  76 N6        30.04R
MT. VERNON     CLOUDY    51  40  65 N7        30.06R
CENTRALIA*     CLEAR     52  39  61 NE9       30.06R
SALEM*         CLEAR     52  37  56 NE6       30.08R
METROPOLIS*    CLOUDY    52  47  82 NE7       30.01S
$$

ILZ067-068-072-073-078-083-087-091-230400-
SOUTHEAST ILLINOIS

CITY           SKY/WX    TMP DP  RH WIND       PRES   REMARKS
LAWRENCEVILLE  CLOUDY    49  40  71 NE9       30.07R
FLORA*         CLOUDY    53  39  58 NE7       30.08R
FAIRFIELD*     CLOUDY    52  41  66 N6        30.05R
HARRISBURG*    CLOUDY    53  44  71 NE9       30.04R
ROBINSON*      CLEAR     49  37  62 NE9       30.09S
CARMI*         CLOUDY    52  44  73 N8        30.03S
$$

ABBREVIATIONS USED IN REMARKS
   TC - TEMPERATURE IN CELSIUS
  WCI - WIND CHILL INDEX
   HX - HEAT INDEX
  VSB - VISIBILITY
$$





USA.gov is the U.S. government's official web portal to all federal, state and local government web resources and services.